Radiation Dose at Monitoring Post of Fukushima Daini Nuclear Power Station
Date,Time,MP-1(microSv/h),MP-2(microSv/h),MP-3(microSv/h),MP-4(microSv/h),MP-5(microSv/h),MP-6(microSv/h),MP-7(microSv/h),Wind Direction,Wind Velocity(m/s),Rain
2024/02/19,00:00,0.149,0.133,0.213,0.201,0.208,0.118,0.077,south,5.9,No
2024/02/19,00:10,0.148,0.133,0.213,0.202,0.207,0.119,0.076,south-southwest,7.0,No
2024/02/19,00:20,0.149,0.133,0.212,0.201,0.208,0.119,0.077,south-southwest,6.5,No
2024/02/19,00:30,0.148,0.134,0.212,0.201,0.209,0.119,0.077,south-southwest,6.8,No
2024/02/19,00:40,0.149,0.134,0.212,0.201,0.208,0.119,0.077,south-southwest,5.7,No
2024/02/19,00:50,0.149,0.133,0.212,0.201,0.208,0.119,0.077,south-southwest,5.5,No
2024/02/19,01:00,0.149,0.134,0.212,0.200,0.208,0.118,0.077,south-southwest,5.1,No
2024/02/19,01:10,0.149,0.134,0.212,0.201,0.206,0.118,0.077,south-southwest,5.4,No
2024/02/19,01:20,0.149,0.134,0.212,0.200,0.207,0.119,0.077,south-southwest,6.5,No
2024/02/19,01:30,0.148,0.133,0.213,0.202,0.208,0.119,0.077,south-southwest,6.5,No
2024/02/19,01:40,0.149,0.134,0.212,0.201,0.208,0.119,0.077,south-southwest,5.8,No
2024/02/19,01:50,0.149,0.133,0.213,0.201,0.208,0.119,0.077,south-southwest,6.2,No
2024/02/19,02:00,0.148,0.134,0.212,0.200,0.207,0.120,0.077,south-southwest,6.4,No
2024/02/19,02:10,0.148,0.134,0.212,0.201,0.208,0.119,0.077,south-southwest,5.0,No
2024/02/19,02:20,0.149,0.134,0.212,0.202,0.208,0.119,0.076,south-southwest,5.4,No
2024/02/19,02:30,0.149,0.133,0.212,0.202,0.207,0.119,0.077,south,5.2,No
2024/02/19,02:40,0.149,0.133,0.211,0.201,0.208,0.119,0.076,south,5.6,No
2024/02/19,02:50,0.151,0.133,0.212,0.202,0.206,0.118,0.077,south-southwest,7.3,No
2024/02/19,03:00,0.148,0.134,0.212,0.201,0.208,0.119,0.077,south-southwest,7.6,No
2024/02/19,03:10,0.148,0.134,0.211,0.201,0.208,0.119,0.077,south,6.1,No
2024/02/19,03:20,0.150,0.134,0.212,0.201,0.207,0.120,0.077,south,6.3,No
2024/02/19,03:30,0.148,0.133,0.214,0.200,0.208,0.119,0.076,south,6.5,No
2024/02/19,03:40,0.148,0.133,0.212,0.201,0.208,0.119,0.077,south-southwest,6.7,No
2024/02/19,03:50,0.149,0.134,0.212,0.201,0.206,0.119,0.077,south,8.3,No
2024/02/19,04:00,0.148,0.133,0.213,0.201,0.208,0.120,0.076,south,6.9,No
2024/02/19,04:10,0.149,0.133,0.211,0.200,0.207,0.119,0.076,south-southwest,6.8,No
2024/02/19,04:20,0.148,0.134,0.212,0.201,0.209,0.119,0.077,south-southwest,7.5,No
2024/02/19,04:30,0.148,0.133,0.211,0.201,0.207,0.119,0.077,south,6.4,No
2024/02/19,04:40,0.149,0.133,0.212,0.201,0.207,0.120,0.077,south,6.8,No
2024/02/19,04:50,0.148,0.134,0.211,0.199,0.207,0.119,0.076,south,7.3,No
2024/02/19,05:00,0.148,0.133,0.212,0.202,0.206,0.119,0.077,south,7.3,Yes
2024/02/19,05:10,0.148,0.133,0.212,0.201,0.209,0.119,0.077,south,6.8,No
2024/02/19,05:20,0.148,0.133,0.212,0.201,0.206,0.119,0.077,south,6.7,No
2024/02/19,05:30,0.148,0.135,0.213,0.202,0.207,0.119,0.076,south-southwest,7.4,No
2024/02/19,05:40,0.149,0.135,0.212,0.201,0.208,0.119,0.077,south-southwest,7.1,No
2024/02/19,05:50,0.148,0.134,0.212,0.201,0.207,0.119,0.076,south-southwest,8.2,Yes
2024/02/19,06:00,0.149,0.133,0.212,0.201,0.208,0.119,0.077,south,6.7,Yes
2024/02/19,06:10,0.148,0.133,0.212,0.201,0.206,0.119,0.077,south-southwest,6.0,No
2024/02/19,06:20,0.148,0.132,0.212,0.202,0.208,0.120,0.077,south-southwest,8.3,No
2024/02/19,06:30,0.149,0.133,0.212,0.201,0.207,0.120,0.077,south-southwest,9.0,Yes
2024/02/19,06:40,0.148,0.134,0.211,0.201,0.208,0.119,0.077,south-southwest,9.0,No
2024/02/19,06:50,0.149,0.133,0.212,0.202,0.208,0.119,0.077,south-southwest,8.3,No
2024/02/19,07:00,0.149,0.134,0.213,0.201,0.206,0.119,0.077,south-southwest,7.3,No
2024/02/19,07:10,0.149,0.134,0.213,0.200,0.208,0.119,0.077,south-southwest,8.2,Yes
2024/02/19,07:20,0.149,0.134,0.212,0.200,0.207,0.119,0.076,south,6.6,No
2024/02/19,07:30,0.148,0.133,0.211,0.199,0.208,0.120,0.078,south-southwest,8.7,No
2024/02/19,07:40,0.149,0.134,0.213,0.201,0.208,0.119,0.076,south,6.5,No
2024/02/19,07:50,0.148,0.133,0.212,0.201,0.207,0.119,0.077,south-southwest,6.7,Yes
2024/02/19,08:00,0.148,0.133,0.212,0.199,0.208,0.119,0.077,south,6.2,Yes
2024/02/19,08:10,0.148,0.133,0.212,0.201,0.207,0.119,0.076,south,7.0,Yes
2024/02/19,08:20,0.149,0.133,0.213,0.200,0.209,0.119,0.077,south,8.4,No
2024/02/19,08:30,0.149,0.133,0.211,0.201,0.207,0.119,0.077,south,7.1,No
2024/02/19,08:40,0.148,0.134,0.212,0.201,0.207,0.118,0.077,south,9.2,No
2024/02/19,08:50,0.149,0.134,0.210,0.200,0.205,0.120,0.076,south,8.5,No
2024/02/19,09:00,0.149,0.132,0.211,0.200,0.208,0.119,0.076,south,7.3,No
2024/02/19,09:10,0.148,0.135,0.212,0.199,0.208,0.119,0.077,south,8.1,No
2024/02/19,09:20,0.149,0.134,0.213,0.202,0.206,0.120,0.077,south,6.5,No
2024/02/19,09:30,0.148,0.134,0.213,0.201,0.208,0.119,0.077,south,7.3,No
2024/02/19,09:40,0.149,0.133,0.214,0.201,0.208,0.119,0.076,south,6.3,No
2024/02/19,09:50,0.148,0.133,0.211,0.201,0.208,0.119,0.077,south,7.4,No
2024/02/19,10:00,0.149,0.135,0.212,0.200,0.206,0.119,0.076,south,8.2,No
2024/02/19,10:10,0.148,0.133,0.211,0.201,0.207,0.119,0.076,south,7.4,No
2024/02/19,10:20,0.149,0.133,0.212,0.199,0.207,0.119,0.076,south,8.6,No
2024/02/19,10:30,0.148,0.133,0.212,0.200,0.207,0.119,0.076,south,7.9,No
2024/02/19,10:40,0.147,0.133,0.213,0.201,0.208,0.119,0.076,south,10.3,No
2024/02/19,10:50,0.148,0.133,0.212,0.201,0.207,0.119,0.077,south,11.2,No
2024/02/19,11:00,0.148,0.134,0.213,0.200,0.208,0.119,0.076,south,10.7,No
2024/02/19,11:10,0.149,0.133,0.211,0.199,0.206,0.119,0.078,south,8.6,No
2024/02/19,11:20,0.148,0.133,0.213,0.201,0.208,0.117,0.076,south,10.6,No
2024/02/19,11:30,0.146,0.133,0.211,0.200,0.206,0.119,0.076,south,10.6,No
2024/02/19,11:40,0.149,0.133,0.210,0.200,0.207,0.119,0.076,south,12.0,No
2024/02/19,11:50,0.149,0.134,0.213,0.202,0.206,0.120,0.076,south,10.6,No
2024/02/19,12:00,0.147,0.132,0.210,0.199,0.205,0.118,0.076,south,10.3,No
2024/02/19,12:10,0.149,0.132,0.213,0.200,0.208,0.119,0.077,south,9.5,No
2024/02/19,12:20,0.148,0.134,0.212,0.200,0.206,0.119,0.077,south,10.3,No
2024/02/19,12:30,0.149,0.133,0.212,0.201,0.208,0.120,0.076,south,10.6,No
2024/02/19,12:40,0.149,0.133,0.212,0.200,0.206,0.119,0.076,south,8.7,No
2024/02/19,12:50,0.148,0.132,0.212,0.201,0.208,0.119,0.076,south,9.8,No
2024/02/19,13:00,0.148,0.133,0.212,0.201,0.207,0.119,0.076,south,10.1,No
2024/02/19,13:10,0.148,0.133,0.213,0.202,0.208,0.120,0.077,south,10.9,No
2024/02/19,13:20,0.148,0.134,0.212,0.200,0.209,0.118,0.077,south,9.5,No
2024/02/19,13:30,0.150,0.132,0.213,0.200,0.206,0.119,0.076,south,8.4,No
2024/02/19,13:40,0.148,0.134,0.212,0.200,0.208,0.119,0.077,south,10.0,No
2024/02/19,13:50,0.149,0.133,0.212,0.201,0.206,0.118,0.077,south,8.2,No
2024/02/19,14:00,0.147,0.134,0.213,0.201,0.208,0.119,0.076,south,7.8,No
2024/02/19,14:10,0.149,0.133,0.211,0.201,0.205,0.118,0.076,south,9.5,No
2024/02/19,14:20,0.148,0.134,0.212,0.200,0.208,0.120,0.076,south-southeast,6.8,No
2024/02/19,14:30,0.149,0.133,0.211,0.200,0.205,0.119,0.076,south,8.9,No
2024/02/19,14:40,0.148,0.135,0.213,0.201,0.208,0.119,0.076,south,7.8,No
2024/02/19,14:50,0.149,0.133,0.211,0.202,0.207,0.119,0.077,south,8.8,No
2024/02/19,15:00,0.149,0.134,0.213,0.200,0.208,0.119,0.076,south,8.8,No
2024/02/19,15:10,0.147,0.133,0.212,0.200,0.207,0.118,0.077,south,8.2,No
2024/02/19,15:20,0.148,0.134,0.212,0.201,0.208,0.119,0.076,south,9.5,No
2024/02/19,15:30,0.147,0.134,0.212,0.201,0.208,0.118,0.076,south,8.1,No
2024/02/19,15:40,0.148,0.135,0.213,0.201,0.207,0.119,0.077,south,8.7,Yes
2024/02/19,15:50,0.148,0.133,0.211,0.201,0.209,0.118,0.076,south,9.8,Yes
2024/02/19,16:00,0.149,0.133,0.212,0.201,0.207,0.119,0.077,south,7.5,No
2024/02/19,16:10,0.149,0.133,0.214,0.200,0.208,0.119,0.077,south-southwest,8.7,No
2024/02/19,16:20,0.149,0.133,0.212,0.201,0.206,0.119,0.077,south,8.3,No
2024/02/19,16:30,0.147,0.133,0.213,0.201,0.209,0.119,0.076,south-southwest,9.2,Yes
2024/02/19,16:40,0.150,0.134,0.212,0.200,0.207,0.119,0.077,south,8.4,Yes
2024/02/19,16:50,0.148,0.134,0.213,0.201,0.208,0.120,0.076,south,9.3,Yes
2024/02/19,17:00,0.149,0.134,0.211,0.201,0.207,0.119,0.077,south-southwest,9.0,No
2024/02/19,17:10,0.149,0.133,0.213,0.200,0.207,0.119,0.076,south,8.7,No
2024/02/19,17:20,0.150,0.134,0.212,0.201,0.208,0.119,0.076,south,8.5,No
2024/02/19,17:30,0.148,0.133,0.213,0.201,0.208,0.120,0.077,south,7.8,Yes
2024/02/19,17:40,0.150,0.134,0.211,0.202,0.207,0.119,0.077,south,8.8,Yes
2024/02/19,17:50,0.148,0.135,0.212,0.201,0.207,0.120,0.076,south-southwest,9.3,Yes
2024/02/19,18:00,0.149,0.134,0.212,0.201,0.206,0.119,0.076,south,7.4,Yes
2024/02/19,18:10,0.148,0.133,0.211,0.201,0.209,0.120,0.076,south-southwest,11.5,Yes
2024/02/19,18:20,0.149,0.134,0.213,0.200,0.208,0.119,0.076,south,9.3,Yes
2024/02/19,18:30,0.148,0.135,0.212,0.202,0.208,0.119,0.077,south-southwest,9.5,Yes
2024/02/19,18:40,0.149,0.134,0.212,0.200,0.208,0.119,0.077,south-southwest,10.3,Yes
2024/02/19,18:50,0.149,0.133,0.212,0.202,0.208,0.119,0.077,south-southwest,10.3,Yes
2024/02/19,19:00,0.149,0.133,0.212,0.201,0.208,0.118,0.076,south,9.2,Yes
2024/02/19,19:10,0.148,0.133,0.212,0.201,0.206,0.119,0.077,south,9.6,Yes
2024/02/19,19:20,0.149,0.134,0.213,0.201,0.207,0.119,0.076,south,10.1,Yes
2024/02/19,19:30,0.148,0.133,0.213,0.201,0.206,0.120,0.077,south,9.5,No
2024/02/19,19:40,0.149,0.135,0.213,0.201,0.208,0.119,0.076,south,7.6,Yes
2024/02/19,19:50,0.149,0.134,0.213,0.200,0.207,0.119,0.077,south,8.7,Yes
2024/02/19,20:00,0.149,0.133,0.211,0.201,0.208,0.119,0.077,south,8.7,Yes
2024/02/19,20:10,0.149,0.134,0.212,0.201,0.208,0.119,0.077,south-southwest,9.5,Yes
2024/02/19,20:20,0.149,0.134,0.214,0.202,0.209,0.119,0.077,south-southwest,9.2,Yes
2024/02/19,20:30,0.148,0.134,0.212,0.201,0.207,0.119,0.077,south-southwest,11.7,Yes
2024/02/19,20:40,0.149,0.134,0.215,0.202,0.209,0.121,0.077,south-southwest,9.8,Yes
2024/02/19,20:50,0.149,0.135,0.212,0.201,0.207,0.120,0.076,south-southwest,12.3,Yes
2024/02/19,21:00,0.149,0.134,0.214,0.201,0.209,0.119,0.077,south-southwest,10.6,Yes
2024/02/19,21:10,0.148,0.134,0.213,0.201,0.207,0.119,0.076,south-southwest,9.5,Yes
2024/02/19,21:20,0.149,0.133,0.213,0.201,0.208,0.120,0.077,south,10.3,Yes
2024/02/19,21:30,0.149,0.134,0.212,0.202,0.207,0.120,0.078,south,10.6,Yes
2024/02/19,21:40,0.150,0.135,0.213,0.203,0.209,0.121,0.078,south,9.8,Yes
2024/02/19,21:50,0.151,0.136,0.215,0.205,0.210,0.122,0.080,south,9.0,Yes
2024/02/19,22:00,0.152,0.137,0.216,0.204,0.209,0.123,0.080,south,9.2,Yes
2024/02/19,22:10,0.152,0.136,0.215,0.204,0.210,0.122,0.080,south,8.7,Yes
2024/02/19,22:20,0.150,0.136,0.215,0.204,0.208,0.122,0.079,south,9.0,Yes
2024/02/19,22:30,0.152,0.136,0.214,0.203,0.210,0.121,0.079,south,8.6,Yes
2024/02/19,22:40,0.150,0.137,0.216,0.206,0.209,0.123,0.080,south,11.2,Yes
2024/02/19,22:50,0.154,0.139,0.217,0.207,0.212,0.125,0.081,south,6.3,Yes
2024/02/19,23:00,0.155,0.139,0.218,0.207,0.212,0.126,0.084,south,8.8,Yes
2024/02/19,23:10,0.156,0.141,0.220,0.209,0.213,0.128,0.085,south-southwest,9.3,Yes
2024/02/19,23:20,0.157,0.142,0.221,0.210,0.214,0.128,0.087,south-southwest,8.5,Yes
2024/02/19,23:30,0.158,0.142,0.221,0.211,0.213,0.130,0.087,south-southwest,9.8,Yes
2024/02/19,23:40,0.159,0.143,0.221,0.210,0.214,0.129,0.087,south-southwest,9.6,Yes
2024/02/19,23:50,0.157,0.141,0.220,0.210,0.213,0.130,0.087,south-southwest,10.9,Yes
